Home   Weather   Leesburg   Past weeks

Flag for USA Past Weather in Leesburg, Virginia, USA — Yesterday and Last 2 Weeks

Now
88 °F

Partly sunny.


Feels Like: 93 °F
Forecast: 67 / 90 °F
Wind: 10 mph from Southwest

Location: Leesburg / Godfrey

Current Time: Aug 31, 2016 at 12:14:11 PM

Latest Report: Aug 31, 2016 at 11:55 AM


Visibility: 10 mi

Pressure: 29.98 "Hg

Humidity: 55%

Dew Point: 70 °F

Location of LeesburgLocation

Past Weather in Leesburg — Graph

°F

Leesburg Temperature Yesterday

Maximum temperature yesterday: 90 °F (at 2:15 PM)
Minimum temperature yesterday: 70 °F (at 6:15 AM)
Average temperature yesterday: 79 °F

High & Low Weather Summary for the Past Weeks

 TemperatureHumidityPressure
High99 °F (Aug 16, 3:35 PM)100% (Aug 16, 5:55 PM)30.37 "Hg (Aug 16, 5:55 PM)
Low61 °F (Aug 23, 3:15 AM)40% (Aug 19, 5:55 PM)29.79 "Hg (Aug 21, 3:55 PM)
Average79 °F75%30.10 "Hg
* Reported Aug 16 10:15 AM — Aug 31 10:55 AM, Leesburg, Weather by CustomWeather, © 2016

Note: Actual official high and low records may vary slightly from our data, if they occured in-between our weather recording intervals... More about our weather records

Advertising

Leesburg Weather History for the Previous 24 Hours

Scroll right to see more
 ConditionsComfort  
Time TempWeatherWind HumidityBarometerVisibility
10:55 AM
Wed, Aug 31
84 °FScattered clouds.12 mph66%30.01 "Hg10 mi
10:35 AM82 °FScattered clouds.8 mph70%30.01 "Hg10 mi
10:15 AM81 °FScattered clouds.10 mph74%30.02 "Hg10 mi
9:55 AM79 °FScattered clouds.8 mph79%30.02 "Hg10 mi
9:35 AM79 °FPartly sunny.No wind79%30.02 "Hg10 mi
9:15 AM77 °FPartly sunny.No wind79%30.02 "Hg10 mi
8:55 AM73 °FScattered clouds.3 mph89%30.02 "Hg10 mi
8:35 AM73 °FScattered clouds.No wind89%30.03 "Hg10 mi
8:15 AM72 °FSunny.No wind94%30.03 "Hg10 mi
7:55 AM70 °FSunny.3 mph94%30.03 "Hg10 mi
7:35 AM68 °FClear.No wind100%30.04 "Hg10 mi
7:15 AM68 °FClear.No wind100%30.04 "Hg10 mi
6:55 AM66 °FClear.No wind100%30.04 "Hg10 mi
6:35 AM66 °FClear.No wind100%30.03 "Hg10 mi
6:15 AM66 °FClear.No wind100%30.03 "Hg10 mi
5:55 AM66 °FClear.No wind100%30.03 "Hg10 mi
5:35 AM68 °FClear.No wind94%30.03 "Hg10 mi
5:15 AM68 °FClear.No wind94%30.04 "Hg10 mi
4:55 AM68 °FClear.No wind100%30.04 "Hg10 mi
4:35 AM66 °FClear.No wind100%30.05 "Hg10 mi
4:15 AM68 °FPassing clouds.No wind100%30.05 "Hg10 mi
3:55 AM68 °FPassing clouds.No wind100%30.05 "Hg10 mi
3:35 AM68 °FPassing clouds.No wind100%30.05 "Hg10 mi
3:15 AM70 °FClear.3 mph94%30.06 "Hg10 mi
2:55 AM68 °FClear.No wind100%30.06 "Hg10 mi
2:35 AM70 °FClear.3 mph94%30.06 "Hg10 mi
2:15 AM70 °FClear.No wind94%30.06 "Hg10 mi
1:55 AM70 °FClear.No wind94%30.06 "Hg10 mi
1:35 AM70 °FClear.No wind100%30.06 "Hg10 mi
1:15 AM72 °FClear.No wind94%30.07 "Hg10 mi
12:55 AM70 °FClear.No wind94%30.07 "Hg10 mi
12:35 AM72 °FClear.5 mph94%30.07 "Hg10 mi
12:15 AM70 °FClear.No wind100%30.07 "Hg10 mi
11:55 PM
Tue, Aug 30
72 °FClear.No wind94%30.07 "Hg10 mi
11:35 PM72 °FClear.No wind94%30.06 "Hg10 mi
10:55 PM72 °FClear.3 mph94%30.06 "Hg10 mi
10:35 PM73 °FClear.3 mph89%30.07 "Hg10 mi
10:15 PM73 °FClear.7 mph89%30.07 "Hg10 mi
9:55 PM77 °FClear.8 mph79%30.06 "Hg10 mi
9:15 PM79 °FClear.No wind70%30.06 "Hg10 mi
8:55 PM77 °FClear.5 mph79%30.05 "Hg10 mi
8:35 PM81 °FSunny.No wind66%30.05 "Hg10 mi
8:15 PM82 °FSunny.No wind62%30.05 "Hg10 mi
7:55 PM82 °FSunny.3 mph62%30.04 "Hg10 mi
7:35 PM84 °FSunny.5 mph58%30.04 "Hg10 mi
7:15 PM86 °FSunny.3 mph52%30.04 "Hg10 mi
6:55 PM86 °FSunny.5 mph52%30.05 "Hg10 mi
6:15 PM88 °FSunny.No wind49%30.05 "Hg10 mi
5:55 PM88 °FSunny.5 mph49%30.05 "Hg10 mi
5:35 PM88 °FSunny.No wind49%30.06 "Hg10 mi
5:15 PM88 °FSunny.5 mph49%30.06 "Hg10 mi
4:55 PM88 °FSunny.9 mph49%30.06 "Hg10 mi
4:35 PM90 °FScattered clouds.5 mph46%30.07 "Hg10 mi
4:15 PM90 °FScattered clouds.No wind46%30.07 "Hg10 mi
3:55 PM88 °FScattered clouds.3 mph46%30.08 "Hg10 mi
3:15 PM90 °FPartly sunny.No wind43%30.10 "Hg10 mi
2:55 PM90 °FPartly sunny.No wind43%30.11 "Hg10 mi
2:35 PM88 °FScattered clouds.5 mph46%30.11 "Hg10 mi
2:15 PM90 °FScattered clouds.No wind43%30.12 "Hg10 mi
1:55 PM86 °FScattered clouds.5 mph49%30.13 "Hg10 mi
1:35 PM88 °FPartly sunny.6 mph46%30.14 "Hg10 mi
1:15 PM86 °FSunny.No wind46%30.14 "Hg10 mi
12:55 PM86 °FSunny.3 mph46%30.15 "Hg10 mi
12:35 PM86 °FSunny.No wind46%30.16 "Hg10 mi
12:15 PM84 °FSunny.3 mph48%30.16 "Hg10 mi
Weather by CustomWeather, © 2016

See weather overviewHow to use our weather pages